Location: Unspecified
(0.0000°N, 0.0000°E)
Time: 00:23:42
(UTC+00:00)

Envisat - Pass Details

Date: 24 January 2022
Orbit: 764 x 766 km, 98.2° (Epoch: 27 January)

Event Time Altitude Azimuth Distance (km) Brightness Sun altitude
Rises 04:05:54 0° 23° (NNE) 3,213 6.2 -29.6°
Reaches altitude 10° 04:08:16 10° 28° (NNE) 2,291 5.5 -29.0°
Maximum altitude 04:13:07 48° 102° (ESE) 995 3.9 -27.9°
Drops below altitude 10° 04:17:59 10° 176° (S) 2,301 5.7 -26.8°
Sets 04:20:22 0° 181° (S) 3,229 6.5 -26.2°
